Weather WX

World > North America > United States > North Dakota

Erie, North Dakota Regional Weather

Lat: 47.11N, Lon: 97.39W
Wx Zone: NDZ039
Warning FLW WEATHER ALERT - (More Info. Click Here) Warning
Feedback

Erie, ND Regional Weather

Expires:201906152200;;126632
ASUS43 KBIS 152110
RWRND 

NORTH DAKOTA REGIONAL WEATHER ROUNDUP
NATIONAL WEATHER SERVICE BISMARCK ND
400 PM CDT SAT JUN 15 2019

NOTE: "FAIR" INDICATES FEW OR NO CLOUDS BELOW 12,000 FEET WITH NO
SIGNIFICANT WEATHER AND/OR OBSTRUCTIONS TO VISIBILITY.



NDZ022-023-025-028>030-036>039-047>053-152200-
SOUTHEAST NORTH DAKOTA
  
CITY           SKY/WX    TMP DP  RH WIND       PRES   REMARKS
FARGO          LGT RAIN  57  55  93 E10       29.78R                  
JAMESTOWN      CLOUDY    61  59  93 E6        29.76R THUNDER          
$$ 

  

SKY/WX - Weather  TMP - Temperature  DP - Dew Point  RH - Relative Humidity
WIND - Wind Direction/Speed PRES - Barometric Pressure VSB - Visibility
WCI - Wind Chill Index E13G22 Wind - East Wind 13 mph/Gusts of 22 mph